Regional Weather Roundup
Issued by NWS

Home | Current Version | Previous Version | Text Only | Print | Product List | Glossary Off
Versions: 1 2 3 4 5 6 7 8 9 10 11 12 13 14 15 16 17 18 19 20 21 22 23 24 25 26 27 28 29 30 31 32 33 34 35 36 37 38 39 40 41 42 43 44 45 46 47 48 49 50

000
ASUS43 KLMK 191502
RWRKY
KENTUCKY REGIONAL WEATHER ROUNDUP
NATIONAL WEATHER SERVICE LOUISVILLE KY
1100 AM EDT THU OCT 19 2017

NOTE "FAIR" INDICATES FEW OR NO CLOUDS BELOW 12,000 FEET
WITH NO SIGNIFICANT WEATHER AND/OR OBSTRUCTIONS TO VISIBILITY.

KYZ001>023-026-027-061>063-070>075-191600-
WESTERN AND SOUTH CENTRAL KENTUCKY

CITY           SKY/WX    TMP DP  RH WIND       PRES   REMARKS
PADUCAH        SUNNY     64  47  53 SW10      30.26R
HENDERSON      SUNNY     64  50  60 SW12G18   30.26S
OWENSBORO      SUNNY     64  50  60 SW13      30.27S
HOPKINSVILLE   SUNNY     62  48  60 SW9       30.30R
BOWLING GREEN  SUNNY     61  50  67 SW10      30.32R
GLASGOW        NOT AVBL
$$

KYZ024-025-028>034-038-045-046-053-191600-
NORTH CENTRAL KENTUCKY

CITY           SKY/WX    TMP DP  RH WIND       PRES   REMARKS
LOUISVILLE/SDF NOT AVBL
LOUISVILLE/LOU SUNNY     62  51  67 S7        30.29R
FORT KNOX      SUNNY     61  49  64 S9        30.28R
$$

KYZ035>037-039>044-047>052-055>060-089>105-191600-
NORTHEAST KENTUCKY

CITY           SKY/WX    TMP DP  RH WIND       PRES   REMARKS
LEXINGTON      SUNNY     61  49  64 SW13      30.31R
COVINGTON      PTSUNNY   59  49  69 SW9       30.26R
FRANKFORT      SUNNY     61  47  59 MISG      30.29R
$$

KYZ054-064>069-076>088-106>120-191600-
SOUTHEAST KENTUCKY

CITY           SKY/WX    TMP DP  RH WIND       PRES   REMARKS
JACKSON        SUNNY     56  47  71 CALM      30.34R
LONDON         SUNNY     56  48  74 S5        30.35S
SOMERSET       NOT AVBL
MIDDLESBORO    SUNNY     51  48  90 CALM      30.38S
MONTICELLO     SUNNY     62  48  60 VRB5      30.36S
$$




USA.gov is the U.S. government's official web portal to all federal, state and local government web resources and services.